FENGYUN 1C DEB, 31431

Orbit data source: Space-Track

FENGYUN 1C DEB, 31431 is space debris in SSO originally from a launch on Mon, 10 May 1999 UTC launched from the Taiyaun Space Center, China (TSC). Fengyun 1C debris stems from the Chinese weather satellite Fengyun-1C, which was intentionally destroyed by a Chinese anti-satellite missile in 2007. This event dramatically increased the amount of space debris, with thousands of trackable fragments posing hazards to satellites and human spaceflight. The Fengyun 1C debris cloud has become a focal point in discussions about space sustainability and the need for international regulations to prevent the creation of new debris.

Loading next visibility...
Identifier
31431, 1999-025BTT
Orbit
SSO
Country
Flag of CNCN / PRC
Related business
Manufacturer
Unknown
Mission
Spacecraft
Bus & Motor
Unknown
Mass
Unknown
Launch date (UTC)
1999-05-10 (27 years ago)
Launch vehicle
Unknown
Launch site
Taiyaun Space Center, China (TSC)
Object type
Payload
Rocket body
Debris
Shape & HBR
Unknown shape, 0.1 m
Radar Cross Section
Small (<0.1 m²)

Expand to show TLE details & history
Last TLE update: 20 hours ago

TLE from 20 hours ago
0 FENGYUN 1C DEB
1 31431U 99025BTT 25351.11670022  .00002211  00000-0  13364-2 0  9997
2 31431  98.5434 239.0286 0133757  83.0450 278.5911 14.03103720945937
Epoch: 2025-12-17T02:48Z
TLE epoch observation values (Epoch: 2025-12-17T02:48:02.899Z)
Latitude
0.00003°
Longitude
111.02534°
Altitude
872.727 km
Speed
7.423 km/s
True Right ascension
15h 56m 06s
True Declination
0° 00' 00"
Sunlit
Object was in daylight at epoch
Visualization orbit readout
Latitude
Unknown
Longitude
Unknown
Altitude
Unknown
Speed
Unknown
Apparent Right ascension
Unknown
Apparent Declination
Unknown
Sunlit
N/A
Visualization observer readout
Local Sidereal Time
21:52:34
Azimuth
Unknown
Elevation
Unknown
Doppler factor
Unknown
Orbital elements
Apogee altitude
977.326 km
Perigee altitude
783.154 km
Semi-major axis
7,258.377 km
Eccentricity
0.01338
Inclination
98.5434°
RAAN
239.0286°
Arg. of periapsis
83.045°
True anomaly
277.07194°
Mean anomaly
278.5911°
Eccentric anomaly
277.83188°
Mean motion
3.50981 °/min
Orbital period
102.57 mins
BSTAR
0.0013364
Loading maneuver chart data...
Computing Atmospheric mass density...

Documentation

Showing up to 5 results
|